Location: Cosy Dell
(34.2789°N, 117.4537°W)
Time: 21:12:55
(UTC+00:00)

Cosmos 468 Rocket - Pass Details

Date: 14 July 2020
Orbit: 743 x 780 km, 74.0° (Epoch: 13 August)

Event Time Altitude Azimuth Distance (km) Brightness Sun altitude
Rises 10:57:30 0° 343° (NNW) 3,264 7.7 -19.4°
Reaches altitude 10° 10:59:54 10° 344° (NNW) 2,336 6.9 -19.1°
Maximum altitude 11:05:14 84° 74° (ENE) 789 4.0 -18.3°
Drops below altitude 10° 11:10:31 10° 162° (SSE) 2,322 6.2 -17.5°
Sets 11:12:53 0° 163° (SSE) 3,244 7.0 -17.1°
